Change the Weather History Date:

Saturday, October 20, 2012

  Actual Average Record
Temperature  
Mean Temperature 46 °F -  
Max Temperature 51 °F 61 °F 77 °F (1985)
Min Temperature 42 °F 37 °F 19 °F (1972)
Degree Days  
Heating Degree Days 18    
Moisture  
Dew Point 32 °F    
Average Humidity 56    
Maximum Humidity 70    
Minimum Humidity 41    
Precipitation  
Precipitation 0.00 in - - ()
Sea Level Pressure  
Sea Level Pressure 29.86 in    
Wind  
Wind Speed 8 mph (WNW)    
Max Wind Speed 16 mph    
Max Gust Speed 29 mph    
Visibility 10 miles    
Events      
Averages and records for this station are not official NWS values.
T = Trace of Precipitation, MM = Missing Value Source: NWS Daily Summary

Daily Weather History Graph

Daily Weather History Graph

Search for Another Location

Airport or City:

Trip Planner

Search our weather history database for the weather conditions in past years. The results will help you decide how hot, cold, wet, or windy it might be!

Date:

Astronomy

Oct. 20, 2012 Rise Set
Actual Time 7:37 AM EDT 6:42 PM EDT
Civil Twilight 7:11 AM EDT 7:08 PM EDT
Nautical Twilight 6:41 AM EDT 7:38 PM EDT
Astronomical Twilight 6:11 AM EDT 8:08 PM EDT
Moon 1:07 PM EDT (10/20) 11:31 PM EDT (10/20)
Length of Visible Light 11h 56m
Length of Day
11h 04m
Waxing Crescent, 34% of the Moon is Illuminated
Oct 20
Waxing Crescent
Oct 21
First Quarter
Oct 29
Full
Nov 6
Last Quarter
Nov 13
New

Hourly Weather History & Observations

Time (EDT) Temp. Windchill Dew Point Humidity Pressure Visibility Wind Dir Wind Speed Gust Speed Precip Events Conditions
12:15 AM 51.8 °F - 28.4 °F 41% 29.79 in 10.0 mi WNW 9.2 mph 18.4 mph N/A   Overcast
12:35 AM 51.8 °F - 28.4 °F 41% 29.79 in 10.0 mi West 9.2 mph - N/A   Overcast
12:55 AM 51.8 °F - 28.4 °F 41% 29.80 in 10.0 mi WSW 4.6 mph - N/A   Overcast
1:15 AM 50.0 °F - 30.2 °F 47% 29.80 in 10.0 mi Calm Calm - N/A   Overcast
1:35 AM 50.0 °F - 30.2 °F 47% 29.79 in 10.0 mi SW 3.5 mph - N/A   Overcast
1:55 AM 51.8 °F - 30.2 °F 44% 29.79 in 10.0 mi WSW 3.5 mph - N/A   Overcast
2:15 AM 50.0 °F - 30.2 °F 47% 29.79 in 10.0 mi Calm Calm - N/A   Overcast
2:35 AM 50.0 °F - 30.2 °F 47% 29.79 in 10.0 mi WNW 5.8 mph - N/A   Overcast
2:55 AM 50.0 °F - 30.2 °F 47% 29.79 in 10.0 mi WNW 3.5 mph - N/A   Mostly Cloudy
3:15 AM 50.0 °F - 30.2 °F 47% 29.79 in 10.0 mi NNW 4.6 mph - N/A   Scattered Clouds
3:35 AM 50.0 °F - 32.0 °F 50% 29.79 in 10.0 mi WNW 6.9 mph - N/A   Clear
3:55 AM 50.0 °F - 32.0 °F 50% 29.79 in 10.0 mi NNW 8.1 mph - N/A   Clear
4:15 AM 48.2 °F - 32.0 °F 54% 29.79 in 10.0 mi North 5.8 mph - N/A   Scattered Clouds
4:35 AM 46.4 °F 43.5 °F 32.0 °F 57% 29.79 in 10.0 mi North 5.8 mph - N/A   Scattered Clouds
4:55 AM 46.4 °F 45.2 °F 32.0 °F 57% 29.79 in 10.0 mi NNW 3.5 mph - N/A   Scattered Clouds
5:15 AM 46.4 °F 42.4 °F 32.0 °F 57% 29.79 in 10.0 mi NW 8.1 mph - N/A   Scattered Clouds
5:35 AM 46.4 °F 43.5 °F 32.0 °F 57% 29.80 in 10.0 mi NNW 5.8 mph - N/A   Mostly Cloudy
5:55 AM 46.4 °F 43.5 °F 32.0 °F 57% 29.80 in 10.0 mi West 5.8 mph 16.1 mph N/A   Mostly Cloudy
6:15 AM 46.4 °F - 32.0 °F 57% 29.80 in 10.0 mi Calm Calm - N/A   Mostly Cloudy
6:35 AM 46.4 °F 42.4 °F 32.0 °F 57% 29.80 in 10.0 mi WNW 8.1 mph - N/A   Overcast
6:55 AM 44.6 °F 38.8 °F 32.0 °F 61% 29.81 in 10.0 mi West 11.5 mph 19.6 mph N/A   Overcast
7:15 AM 44.6 °F 40.2 °F 33.8 °F 66% 29.82 in 10.0 mi NW 8.1 mph 17.3 mph N/A   Overcast
7:35 AM 44.6 °F 40.7 °F 33.8 °F 66% 29.82 in 10.0 mi NW 6.9 mph 17.3 mph N/A   Scattered Clouds
7:55 AM 44.6 °F 38.1 °F 33.8 °F 66% 29.82 in 10.0 mi WNW 13.8 mph 18.4 mph N/A   Scattered Clouds
8:15 AM 44.6 °F 39.7 °F 33.8 °F 66% 29.83 in 10.0 mi NW 9.2 mph - N/A   Scattered Clouds
8:35 AM 44.6 °F 41.4 °F 33.8 °F 66% 29.84 in 10.0 mi SW 5.8 mph - N/A   Mostly Cloudy
8:55 AM 44.6 °F 41.4 °F 32.0 °F 61% 29.84 in 10.0 mi West 5.8 mph - N/A   Scattered Clouds
9:15 AM 44.6 °F 38.1 °F 33.8 °F 66% 29.84 in 10.0 mi West 13.8 mph 20.7 mph N/A   Clear
9:35 AM 44.6 °F 38.1 °F 33.8 °F 66% 29.84 in 10.0 mi WNW 13.8 mph 23.0 mph N/A   Scattered Clouds
9:55 AM 46.4 °F 42.9 °F 32.0 °F 57% 29.84 in 10.0 mi WNW 6.9 mph 24.2 mph N/A   Clear
10:15 AM 46.4 °F 39.8 °F 33.8 °F 62% 29.86 in 10.0 mi West 16.1 mph 24.2 mph N/A   Scattered Clouds
10:35 AM 48.2 °F - 33.8 °F 58% 29.86 in 10.0 mi West 15.0 mph 28.8 mph N/A   Overcast
10:55 AM 46.4 °F 40.7 °F 33.8 °F 62% 29.88 in 10.0 mi West 12.7 mph 19.6 mph N/A   Overcast
11:15 AM 50.0 °F - 33.8 °F 54% 29.88 in 10.0 mi WNW 13.8 mph 18.4 mph N/A   Overcast
11:35 AM 50.0 °F - 33.8 °F 54% 29.88 in 10.0 mi WNW 13.8 mph 23.0 mph N/A   Overcast
11:55 AM 50.0 °F - 32.0 °F 50% 29.88 in 10.0 mi NW 9.2 mph - N/A   Overcast
12:15 PM 50.0 °F - 32.0 °F 50% 29.88 in 10.0 mi WNW 15.0 mph 24.2 mph N/A   Mostly Cloudy
12:35 PM 50.0 °F - 32.0 °F 50% 29.88 in 10.0 mi WNW 10.4 mph 16.1 mph N/A   Overcast
12:55 PM 50.0 °F - 32.0 °F 50% 29.88 in 10.0 mi WNW 10.4 mph 18.4 mph N/A   Mostly Cloudy
1:15 PM 51.8 °F - 32.0 °F 47% 29.88 in 10.0 mi WNW 9.2 mph 20.7 mph N/A   Mostly Cloudy
1:35 PM 51.8 °F - 33.8 °F 50% 29.88 in 10.0 mi West 11.5 mph 18.4 mph N/A   Mostly Cloudy
1:55 PM 50.0 °F - 33.8 °F 54% 29.88 in 10.0 mi WNW 15.0 mph - N/A   Overcast
2:15 PM 50.0 °F - 33.8 °F 54% 29.87 in 10.0 mi West 15.0 mph 20.7 mph N/A   Mostly Cloudy
2:35 PM 51.8 °F - 33.8 °F 50% 29.88 in 10.0 mi WNW 11.5 mph 20.7 mph N/A   Mostly Cloudy
2:55 PM 50.0 °F - 32.0 °F 50% 29.88 in 10.0 mi WNW 15.0 mph 24.2 mph N/A   Mostly Cloudy
3:15 PM 50.0 °F - 33.8 °F 54% 29.88 in 10.0 mi WNW 12.7 mph 18.4 mph N/A   Mostly Cloudy
3:35 PM 50.0 °F - 32.0 °F 50% 29.87 in 10.0 mi NNW 15.0 mph 19.6 mph N/A   Scattered Clouds
3:55 PM 50.0 °F - 32.0 °F 50% 29.88 in 10.0 mi WNW 12.7 mph 24.2 mph N/A   Scattered Clouds
4:15 PM 50.0 °F - 32.0 °F 50% 29.88 in 10.0 mi NW 8.1 mph 18.4 mph N/A   Scattered Clouds
4:35 PM 50.0 °F - 32.0 °F 50% 29.89 in 10.0 mi West 15.0 mph 21.9 mph N/A   Scattered Clouds
5:15 PM 50.0 °F - 32.0 °F 50% 29.90 in 10.0 mi West 9.2 mph 18.4 mph N/A   Scattered Clouds
5:35 PM 50.0 °F - 32.0 °F 50% 29.90 in 10.0 mi WNW 9.2 mph 16.1 mph N/A   Mostly Cloudy
6:15 PM 48.2 °F - 32.0 °F 54% 29.91 in 10.0 mi NNW 13.8 mph 19.6 mph N/A   Scattered Clouds
6:35 PM 48.2 °F - 32.0 °F 54% 29.92 in 10.0 mi WNW 6.9 mph 10.4 mph N/A   Clear
6:55 PM 48.2 °F - 32.0 °F 54% 29.92 in 10.0 mi North 8.1 mph 16.1 mph N/A   Clear
7:15 PM 46.4 °F 42.9 °F 32.0 °F 57% 29.93 in 10.0 mi NW 6.9 mph - N/A   Clear
7:35 PM 46.4 °F 41.9 °F 32.0 °F 57% 29.94 in 10.0 mi NNW 9.2 mph - N/A   Scattered Clouds
7:55 PM 46.4 °F 45.2 °F 33.8 °F 62% 29.94 in 10.0 mi NW 3.5 mph - N/A   Mostly Cloudy
8:15 PM 46.4 °F 45.2 °F 33.8 °F 62% 29.95 in 10.0 mi NW 3.5 mph - N/A   Scattered Clouds
9:15 PM 46.4 °F 41.1 °F 33.8 °F 62% 29.96 in 10.0 mi NW 11.5 mph 17.3 mph N/A   Clear
9:35 PM 44.6 °F 39.2 °F 33.8 °F 66% 29.96 in 10.0 mi NW 10.4 mph - N/A   Clear
9:55 PM 44.6 °F 39.2 °F 33.8 °F 66% 29.96 in 10.0 mi WNW 10.4 mph - N/A   Clear
10:15 PM 44.6 °F 40.7 °F 33.8 °F 66% 29.97 in 10.0 mi NW 6.9 mph - N/A   Clear
10:35 PM 44.6 °F 41.4 °F 33.8 °F 66% 29.98 in 10.0 mi NNW 5.8 mph - N/A   Clear
10:55 PM 42.8 °F 39.3 °F 33.8 °F 70% 29.98 in 10.0 mi NNW 5.8 mph - N/A   Clear
11:15 PM 44.6 °F 43.1 °F 33.8 °F 66% 29.98 in 10.0 mi NNW 3.5 mph - N/A   Clear
11:35 PM 42.8 °F 40.1 °F 33.8 °F 70% 29.99 in 10.0 mi West 4.6 mph - N/A   Clear
11:55 PM 42.8 °F - 33.8 °F 70% 29.99 in 10.0 mi Calm Calm - N/A   Clear